Cloud_Cover
100 100 100 100 100 100 90 99 54 81 77 100 100 100 94 95 61 13 5 17 100 59
100 100 100 100 100 100 76 100 100 83 99 98 100 100 100 100 100 100 33 14 16 73
100 100 100 100 100 100 99 100 100 100 100 100 100 100 100 98 100 91 100 100 60 56
100 100 100 100 100 100 94 100 100 100 100 100 100 58 100 97 100 100 100 74 100 74
100 100 100 100 100 100 100 100 100 100 100 100 100 73 100 88 80 100 97 97 45 81
100 100 100 100 100 100 100 100 100 100 100 100 100 53 12 100 100 100 100 96 100 16
100 100 100 100 100 100 100 100 100 100 100 100 100 99 22 100 100 100 58 100 51 25
100 100 100 100 100 100 100 100 100 100 100 100 100 87 68 100 100 100 82 5 22 99
100 100 100 100 100 100 100 100 100 100 100 100 100 96 21 23 94 100 100 100 5 1
100 100 100 100 100 100 100 100 100 100 100 100 100 100 100 19 96 98 17 93 32 6
100 100 100 100 100 100 100 100 100 100 100 100 100 87 99 99 100 92 44 10 3 4
100 100 100 100 100 100 100 100 100 100 100 100 100 100 100 100 100 100 81 19 72 5
100 100 100 100 100 100 100 100 100 100 100 100 100 100 100 100 100 94 5 48 93 40
48 92 100 74 100 100 100 78 87 98 100 98 100 100 50 42 29 56 62 43 12 0